Temp
28 27 26 27 27 29 30 30 30 33 32 29 30 29 26 26 26 26 26 26 26 26 26 25 25 25 25 24 24 24 24 24 23 23 22 22 22 23 23 23 24 24 24 24
27 26 28 28 28 29 28 29 31 31 31 29 28 28 27 26 26 27 26 26 26 26 24 24 25 25 25 25 24 24 24 23 23 23 23 22 22 23 23 24 24 24 24 24
27 31 30 30 30 31 30 30 31 32 30 28 28 27 28 27 28 27 26 27 27 26 25 23 23 24 25 25 25 24 25 24 24 23 23 22 23 23 23 24 24 24 24 24
28 29 31 32 32 29 31 32 32 31 29 28 28 26 27 27 27 26 26 26 26 25 25 24 23 23 24 26 25 25 25 25 25 24 23 23 23 22 24 24 24 23 24 24
30 32 32 32 32 31 32 31 31 30 27 27 28 25 26 26 26 25 24 26 26 25 25 24 23 25 26 26 26 26 25 25 25 24 24 23 24 24 24 23 24 24 24 23
29 30 32 32 31 32 29 28 25 22 23 26 27 26 25 24 27 25 25 25 25 25 25 24 24 25 26 26 26 26 25 25 25 25 24 24 24 24 23 24 23 24 24 24
30 31 31 33 32 31 28 24 24 27 24 26 25 25 26 26 27 26 25 25 24 25 24 23 22 23 25 26 26 25 26 26 26 26 25 25 25 24 24 24 24 24 24 24
28 30 32 32 32 30 27 26 24 28 25 25 24 27 27 26 26 26 26 25 24 24 23 23 23 24 25 26 26 25 26 26 26 26 27 26 25 25 24 24 24 23 23 24
27 30 31 31 31 30 29 27 25 22 21 23 23 25 27 25 25 25 24 24 24 24 23 23 23 25 25 25 26 26 26 26 27 26 26 25 25 24 24 25 25 23 23 23
28 29 30 31 30 28 29 25 26 21 27 27 24 24 25 26 25 25 24 24 23 23 23 23 23 24 24 25 25 26 26 26 26 25 25 25 25 25 25 24 24 24 23 23
26 27 29 30 29 28 28 26 20 20 21 23 23 24 23 25 24 24 24 24 23 22 23 22 22 24 24 25 26 25 26 26 25 26 26 26 26 25 25 25 24 23 23 23
26 23 26 29 26 26 28 26 22 23 25 19 21 24 26 23 24 24 24 23 22 23 22 22 22 23 24 24 25 25 25 26 26 26 25 24 24 24 24 24 23 23 23 23
25 23 24 25 26 28 27 26 20 19 19 21 23 24 25 24 24 23 23 22 22 21 20 19 20 21 23 23 25 25 25 25 25 24 24 24 24 23 23 23 22 22 22 22
22 20 24 25 25 25 27 27 23 22 22 21 21 24 26 26 23 22 22 21 20 20 19 19 19 20 22 22 23 24 25 24 24 24 24 23 23 23 23 22 21 21 21 20
23 24 24 23 26 26 27 27 26 27 24 25 25 23 25 24 23 22 21 20 20 20 19 19 19 19 21 23 24 24 24 24 24 24 23 23 23 22 21 21 21 20 20 19
20 22 24 23 25 26 26 26 26 26 23 25 25 24 22 22 21 21 21 20 20 20 20 20 20 20 21 23 24 24 24 24 23 22 22 22 21 20 19 19 19 19 19 18
21 20 21 23 23 25 25 24 25 25 25 24 24 23 21 22 21 20 19 20 20 20 20 20 19 21 23 24 25 24 24 23 22 21 21 21 20 19 18 18 18 18 18 18
19 18 17 20 22 24 23 23 25 24 23 22 23 22 22 20 19 19 20 20 20 20 20 19 20 22 23 24 24 23 22 22 21 20 20 20 19 17 17 17 17 18 18 17
18 18 18 20 19 21 25 24 23 24 23 22 22 21 20 20 20 21 21 20 21 20 20 21 22 22 23 23 23 21 20 20 19 20 19 18 17 16 17 17 17 17 17 17
18 17 20 17 22 22 22 25 24 23 22 21 20 19 20 21 20 19 21 21 21 21 21 20 20 20 20 21 21 19 19 18 19 19 18 17 17 16 16 16 16 16 16 16
18 17 19 17 20 20 21 23 24 23 21 20 20 19 19 20 19 19 20 20 20 19 19 20 20 19 20 20 19 17 17 17 18 18 17 16 16 16 15 16 15 15 16 16
21 19 18 16 20 22 20 24 23 20 18 19 19 19 20 20 20 21 19 18 17 17 18 18 17 16 17 17 17 16 16 17 17 17 16 16 15 15 15 15 15 15 15 15
21 19 18 18 18 17 17 19 19 18 18 20 19 20 19 20 20 19 17 17 16 16 16 15 14 14 15 16 15 14 17 16 16 16 16 16 15 15 15 14 14 14 15 14
18 16 16 18 20 19 17 19 19 20 19 19 19 19 18 20 17 16 15 14 14 15 15 15 14 14 14 15 15 14 15 16 15 15 15 15 14 14 14 14 14 14 14 14
17 17 15 16 18 18 18 16 16 17 17 17 16 17 17 16 17 16 14 13 13 13 14 14 13 13 13 14 14 15 15 15 15 14 14 15 14 14 14 14 14 14 15 14
16 16 17 17 17 17 17 16 17 17 17 16 17 17 16 16 15 15 13 14 13 13 13 13 13 13 13 13 14 14 14 14 13 13 13 13 14 14 14 13 13 14 14 14
Height
772 790 800 788 787 781 783 789 795 774 766 782 786 790 794 789 791 794 795 795 796 794 799 804 807 810 813 816 819 823 825 828 832 836 839 841 840 841 843 844 845 847 848 850
787 799 774 771 776 781 788 793 791 778 770 781 794 799 794 792 789 787 790 792 792 796 797 800 803 807 809 812 816 820 824 827 830 833 835 837 838 839 840 841 842 843 843 844
792 772 763 768 775 781 783 792 786 785 781 785 794 810 800 792 787 788 788 787 791 792 794 797 800 802 806 810 813 817 821 824 826 829 833 835 835 835 835 836 836 837 838 839
782 763 765 765 771 779 790 768 772 782 798 823 797 843 810 798 794 791 788 788 788 790 792 796 801 802 802 805 810 815 818 821 822 825 828 829 829 829 828 830 832 833 833 833
776 765 765 771 769 768 777 767 776 782 804 809 811 833 814 799 801 795 788 784 785 787 788 792 796 797 800 804 806 809 811 813 817 820 822 823 824 823 823 827 827 829 827 827
767 753 755 760 759 759 767 780 797 811 820 839 816 827 823 810 786 791 785 783 783 786 787 789 793 796 798 801 802 804 807 810 814 817 820 821 822 821 822 822 823 822 822 823
770 764 752 748 766 764 777 806 842 835 849 843 818 828 810 787 779 778 781 782 782 783 786 789 792 794 795 796 799 803 806 808 812 815 817 818 819 819 819 818 817 816 815 815
798 798 762 748 760 778 788 799 838 841 856 843 820 822 804 781 773 772 776 778 781 783 783 786 789 790 792 795 799 802 805 808 811 813 814 815 816 816 816 815 814 813 812 810
797 787 754 752 752 760 786 807 801 840 850 848 838 811 786 782 781 777 783 781 783 782 784 785 787 788 791 794 797 801 804 806 808 810 811 813 814 814 813 811 810 808 806 804
770 789 764 756 753 764 769 788 816 834 842 844 842 830 819 794 791 785 787 787 784 784 785 786 787 788 791 794 798 801 804 806 807 809 811 812 812 810 809 807 804 803 801 800
766 779 778 762 775 783 787 800 820 829 841 853 857 834 794 789 785 783 780 778 782 784 785 785 786 789 792 795 798 801 803 805 806 808 809 808 807 805 804 802 799 797 795 794
761 787 799 782 773 771 772 789 804 830 832 849 847 829 778 782 779 778 778 778 780 781 782 784 785 788 791 794 796 799 802 803 805 806 806 805 803 802 801 798 796 794 790 787
759 793 816 806 791 773 783 787 805 817 827 839 842 827 778 777 776 777 780 780 780 782 785 785 787 789 792 796 798 799 801 802 803 803 803 801 800 798 795 792 790 787 784 781
748 791 791 805 793 787 792 787 795 802 828 833 831 809 784 778 780 778 777 778 780 783 784 786 789 790 793 796 798 799 800 801 801 799 798 796 794 791 788 784 782 779 778 775
753 784 785 788 778 776 782 785 788 791 803 810 805 809 789 782 779 777 776 779 782 784 786 788 790 791 793 795 797 797 797 796 794 794 793 791 788 786 782 777 773 772 770 768
760 789 781 793 782 780 788 785 784 785 799 797 798 803 784 777 776 778 779 781 784 786 787 789 791 793 794 794 793 793 792 791 791 791 790 786 782 778 774 770 767 764 763 761
768 786 795 805 793 788 803 790 786 788 788 791 804 792 786 783 783 783 783 784 786 788 790 792 793 792 791 790 790 787 786 787 786 785 783 780 776 771 766 763 760 757 756 755
772 788 802 816 803 820 791 778 775 784 786 787 786 786 783 785 784 782 782 785 788 789 789 789 790 789 788 787 785 784 784 783 783 782 779 776 771 766 761 757 754 752 752 749
759 781 810 816 823 808 785 780 785 784 793 781 784 786 784 783 782 787 782 782 784 786 787 787 788 787 786 785 783 782 781 781 780 776 773 769 765 760 756 752 751 749 746 744
766 773 788 820 813 822 791 767 763 769 802 775 780 786 785 784 802 797 782 783 785 786 787 787 787 786 785 783 782 779 777 776 773 771 768 763 760 757 753 750 748 744 741 739
787 795 800 814 809 802 776 767 762 797 800 772 776 779 784 788 789 785 782 784 785 787 787 787 787 785 783 781 778 775 772 770 767 766 762 758 755 753 751 746 744 741 736 734
781 796 805 815 809 804 773 766 780 777 772 772 776 778 781 782 781 781 784 786 787 788 787 787 787 785 781 778 774 769 767 765 764 760 756 753 752 748 746 742 739 735 731 728
781 782 790 794 796 780 775 771 768 769 771 773 776 777 778 781 783 785 788 789 790 790 789 787 785 781 777 773 770 766 761 761 758 754 751 748 747 744 741 737 734 730 726 723
776 778 786 786 778 777 776 770 768 768 770 772 775 778 781 783 786 789 789 790 789 787 785 784 781 778 774 770 766 764 760 756 752 749 746 744 742 738 735 732 729 725 721 718
775 775 787 789 780 778 776 777 776 775 775 777 778 780 783 785 787 788 790 790 789 788 785 783 781 777 771 768 764 761 757 752 747 744 741 739 738 735 731 727 723 719 715 714
770 776 783 787 775 778 779 778 776 777 779 781 782 784 786 786 789 789 789 789 789 787 784 781 778 775 771 767 763 760 755 749 744 741 738 736 735 731 728 724 717 713 711 708
Wind_Speed
3 3 6 8 6 4 2 2 0 3 2 6 2 2 5 7 7 8 9 10 11 14 13 21 25 26 28 27 28 29 30 30 28 27 25 25 27 26 25 24 22 22 22 22
4 5 6 4 5 3 2 1 3 3 5 6 3 5 4 6 7 11 13 12 13 7 9 15 25 30 30 31 30 30 29 29 27 28 28 24 20 25 28 27 26 24 21 22
5 4 3 5 4 4 1 4 3 3 3 7 7 5 3 2 3 4 8 7 6 11 10 8 17 26 29 31 32 30 30 30 28 28 28 25 24 21 22 22 26 27 26 24
5 5 3 2 1 5 3 2 1 6 4 4 3 4 5 2 4 6 10 9 10 8 7 6 11 19 27 31 30 31 29 29 29 28 29 31 31 24 30 28 25 24 24 26
5 1 2 2 5 6 3 3 3 2 4 4 3 4 6 2 6 8 9 11 9 9 10 9 15 25 28 26 27 28 28 27 29 28 28 29 29 31 31 28 25 25 23 22
5 3 3 6 3 0 6 5 7 5 3 2 2 5 5 6 12 5 3 6 8 9 9 8 15 19 25 24 24 26 28 26 24 23 23 25 28 29 29 30 28 29 26 25
3 3 3 3 4 2 6 7 3 4 5 5 0 3 7 5 3 9 11 8 7 8 8 8 8 16 21 25 23 21 22 23 20 20 22 24 27 28 28 29 30 30 30 29
5 3 3 2 6 7 3 6 5 2 2 4 3 3 4 7 6 9 7 7 7 7 7 8 11 19 22 23 22 20 19 21 18 18 21 24 25 26 29 30 29 30 27 22
5 4 2 1 3 5 4 4 4 7 3 3 4 6 3 5 4 10 7 7 7 7 6 8 10 18 20 19 18 18 17 18 20 20 21 22 23 24 24 25 26 26 26 24
7 3 2 3 2 8 5 6 4 3 2 3 5 5 5 2 4 6 8 9 9 5 5 5 9 13 15 16 15 15 15 15 13 12 13 16 18 20 24 26 27 27 28 26
5 4 4 1 4 6 2 2 7 5 4 5 1 6 6 7 9 13 12 13 10 9 8 8 8 11 12 11 12 11 10 7 3 4 7 13 15 17 20 22 23 21 22 23
6 5 3 1 4 2 1 4 5 5 4 1 3 6 2 6 8 7 7 6 6 7 8 6 9 10 11 12 12 9 6 4 2 7 12 16 19 20 23 26 28 27 28 31
8 0 3 7 6 3 6 3 5 6 4 6 6 6 2 3 4 6 8 8 8 7 6 6 8 12 15 13 10 7 4 4 8 9 12 17 22 24 27 31 32 31 29 30
9 4 7 8 8 5 5 3 3 5 4 5 5 5 5 4 5 6 6 6 7 7 7 6 6 8 10 9 9 6 7 8 9 11 16 19 23 27 33 36 35 30 29 30
5 5 3 4 4 4 5 5 6 3 5 5 3 6 7 7 7 5 5 7 7 7 6 6 6 5 4 4 7 11 12 10 11 16 19 24 28 34 35 35 33 30 31 29
3 2 3 5 4 5 4 4 5 3 4 2 2 6 7 4 2 5 6 6 7 6 6 4 2 3 9 13 14 12 14 15 15 18 23 27 33 36 36 33 31 30 30 26
4 6 3 3 3 3 3 7 5 3 2 5 5 7 5 4 1 3 6 5 6 4 4 5 7 13 14 15 16 18 18 18 18 21 26 32 34 34 34 32 28 25 25 27
6 5 3 3 2 1 6 4 4 6 3 4 3 2 1 4 3 6 4 6 7 7 7 7 11 14 18 20 23 23 21 20 22 24 28 33 34 33 31 29 25 23 26 26
4 6 4 5 4 4 1 4 7 7 6 5 5 3 3 5 4 6 2 3 5 5 8 12 14 16 20 24 28 23 22 22 23 28 31 33 32 30 29 24 24 25 24 26
7 8 5 3 5 7 8 4 5 5 2 7 7 7 7 3 3 4 4 2 2 2 4 8 10 13 17 23 26 25 25 23 27 29 32 32 28 26 23 22 25 25 24 25
4 4 6 3 3 6 5 4 3 6 7 6 8 7 6 4 4 2 3 2 2 6 11 14 18 20 26 30 29 29 28 26 27 27 27 25 22 23 24 23 25 25 23 25
5 6 3 3 3 6 3 2 7 5 3 6 5 4 4 3 3 1 1 5 8 11 15 18 21 24 28 28 26 24 24 27 23 23 21 22 22 21 23 22 24 23 22 23
2 4 5 6 5 3 4 2 1 3 6 4 7 4 7 5 2 4 3 4 5 8 12 15 16 20 25 26 23 21 22 20 22 21 21 22 22 25 25 22 23 24 23 21
3 2 4 3 2 3 5 4 4 3 5 4 3 3 4 2 4 3 0 2 6 14 15 16 20 20 21 25 23 19 20 21 21 22 23 24 24 24 26 25 23 21 20 20
4 3 5 1 2 2 4 3 3 5 6 7 5 3 4 5 2 1 2 3 6 10 14 17 18 19 22 25 23 23 23 24 23 23 24 22 19 20 22 21 20 21 21 18
4 6 4 4 6 4 3 0 0 5 4 4 4 4 4 4 3 3 4 6 8 14 18 19 21 20 20 21 22 22 22 23 19 17 18 20 18 19 21 21 22 21 16 20
Wind_Direction
11 76 221 219 195 165 231 291 91 272 67 89 185 97 154 165 148 169 187 194 197 205 184 196 206 210 217 218 216 222 221 224 224 224 229 237 239 242 244 245 247 254 257 256
31 225 216 207 174 178 168 145 289 283 26 97 93 56 124 186 205 194 188 198 206 185 175 173 195 208 215 220 219 220 227 230 228 229 232 233 242 248 251 252 251 255 256 252
171 222 96 197 153 146 111 176 157 143 56 45 99 3 4 138 207 190 222 215 220 202 195 177 177 194 209 220 225 226 227 231 232 235 235 239 243 251 255 259 250 249 252 251
230 267 210 172 148 131 186 213 96 111 92 169 51 233 276 204 239 203 212 206 212 199 177 174 162 191 209 220 222 229 234 235 238 238 235 239 243 243 255 262 267 264 254 255
248 253 116 137 210 177 178 103 61 56 91 101 4 92 253 179 233 221 213 205 202 192 179 177 181 206 217 222 224 228 230 232 234 235 238 239 245 255 261 262 268 273 271 263
246 284 185 201 85 15 128 78 48 57 87 55 223 140 276 192 210 158 185 182 174 167 173 176 196 209 218 221 225 228 231 237 238 239 241 243 249 258 264 270 276 282 284 281
331 268 292 155 107 42 72 57 5 5 12 209 238 86 243 289 216 174 172 174 168 164 161 163 164 191 211 216 222 224 229 238 241 245 246 253 258 264 269 277 282 284 286 289
154 306 199 180 181 168 69 134 143 196 231 268 313 244 249 279 195 133 160 152 142 166 174 167 181 192 206 213 218 221 232 246 245 246 253 258 266 271 275 278 279 281 283 284
144 266 270 204 133 122 177 70 148 104 26 31 291 296 311 18 131 139 141 151 172 184 170 178 190 198 207 211 217 223 230 241 248 254 257 264 275 282 283 288 287 286 288 288
203 102 35 121 97 44 119 148 77 17 136 276 304 283 243 153 223 164 161 177 195 179 173 185 196 191 203 209 215 220 226 233 245 258 273 279 282 283 284 284 282 283 285 291
143 102 271 85 31 166 90 85 55 109 109 160 247 273 216 213 196 191 192 192 181 181 185 191 181 178 181 182 185 197 214 220 232 273 286 280 282 287 287 286 286 288 289 293
184 125 130 137 307 264 122 133 131 122 222 123 152 271 281 256 219 203 210 184 175 180 190 183 166 157 152 152 153 150 166 180 275 270 269 279 291 295 291 290 289 289 291 298
182 310 68 357 359 1 79 102 105 105 89 187 143 260 299 319 187 216 182 181 184 173 148 134 130 147 157 149 166 167 155 212 247 267 283 296 299 298 293 292 290 286 288 291
97 103 157 186 194 139 137 143 133 113 113 172 222 290 306 315 229 185 178 170 156 151 145 130 131 154 153 155 159 174 218 244 268 299 303 301 300 299 300 299 297 285 289 291
105 109 109 36 106 104 141 161 154 120 156 151 226 212 271 258 237 230 154 136 139 139 134 151 160 156 152 177 216 232 249 274 294 288 295 299 303 303 303 297 294 290 294 288
23 139 128 37 10 121 118 148 125 95 123 301 161 274 238 294 137 177 174 149 146 155 164 163 138 194 219 227 242 260 273 275 280 285 292 302 308 310 308 301 292 292 291 287
84 131 102 172 10 69 2 204 171 125 163 159 206 237 328 332 271 128 118 128 145 122 150 187 208 221 237 251 264 266 275 279 277 286 299 308 312 311 307 303 295 286 284 289
116 91 75 123 49 146 246 329 186 147 179 197 258 240 165 145 137 117 122 129 146 171 194 222 237 250 258 266 273 276 278 271 277 288 303 311 313 309 304 300 288 283 289 291
68 114 82 130 171 284 302 196 161 169 222 202 198 180 137 135 71 26 106 141 168 200 234 254 266 267 274 278 282 287 281 277 286 297 310 314 311 305 301 293 287 294 296 296
59 67 105 135 144 198 236 231 160 109 256 198 148 155 148 111 107 244 217 154 180 233 274 296 314 317 314 309 308 301 290 287 289 305 313 313 312 309 298 294 295 297 298 297
47 34 132 136 190 281 266 275 149 129 237 148 154 164 157 151 188 216 139 164 360 346 337 329 324 319 314 315 310 306 290 282 295 310 309 308 308 306 301 301 300 299 303 302
148 135 166 98 110 257 5 108 163 212 24 112 114 126 132 141 148 125 344 15 5 344 336 331 326 320 319 316 305 298 288 291 303 306 304 306 308 310 307 309 304 303 305 308
96 167 175 169 211 251 283 287 42 135 115 118 119 148 151 153 197 85 54 11 340 319 317 330 331 326 334 330 322 294 288 300 305 304 305 307 308 310 307 307 304 302 301 303
16 134 101 95 294 4 346 20 49 66 113 119 99 111 147 151 105 108 69 352 341 341 336 337 340 330 327 344 334 320 317 319 308 299 301 302 307 310 308 309 304 298 293 293
189 98 131 42 324 18 23 30 354 56 76 89 64 76 104 118 132 67 3 323 315 325 332 333 332 329 329 335 330 331 334 330 311 301 295 298 302 309 318 316 309 301 291 291
180 160 145 204 198 149 190 156 93 104 107 117 109 107 92 82 53 352 331 322 331 335 338 337 336 336 338 340 339 342 341 343 322 303 301 304 304 305 314 315 315 316 300 309